Weather History for GEML - January, 2014

Change the Weather History Date:

Thursday, January 2, 2014

  Actual Average Record
Temperature  
Mean Temperature 60 °F -  
Max Temperature 68 °F 62 °F 71 °F (2003)
Min Temperature 52 °F 50 °F 44 °F (2015)
Degree Days  
Heating Degree Days 5    
Growing Degree Days 10 (Base 50)    
Moisture  
Dew Point 40 °F    
Average Humidity 47    
Maximum Humidity 77    
Minimum Humidity 26    
Precipitation  
Precipitation 0.00 in 0.06 in - ()
Sea Level Pressure  
Sea Level Pressure 30.16 in    
Wind  
Wind Speed 2 mph ()    
Max Wind Speed 5 mph    
Max Gust Speed -    
Visibility 19.0 miles    
Events      
Averages and records for this station are not official NWS values.
T = Trace of Precipitation, MM = Missing Value Source: Averaged Metar Reports

Daily Weather History Graph

Daily Weather History Graph

Search for Another Location

Airport or City:

Trip Planner

Search our weather history database for the weather conditions in past years. The results will help you decide how hot, cold, wet, or windy it might be!

Date:

Astronomy

Jan. 02, 2014 Rise Set
Actual Time 8:20 AM CET 6:11 PM CET
Civil Twilight 7:52 AM CET 6:39 PM CET
Nautical Twilight 7:20 AM CET 7:10 PM CET
Astronomical Twilight 6:50 AM CET 7:41 PM CET
Moon 8:54 AM CET (1/2) 7:46 PM CET (1/2)
Length of Visible Light 10h 46m
Length of Day
9h 50m
New Moon, 2% of the Moon is Illuminated
Jan 2
New Moon
Jan 8
First Quarter
Jan 16
Full
Jan 24
Last Quarter
Jan 30
New

Hourly Weather History & Observations

Time (CET) Temp. Dew Point Humidity Pressure Visibility Wind Dir Wind Speed Gust Speed Precip Events Conditions
6:00 AM 55.4 °F 46.4 °F 72% 30.15 in - Variable 1.2 mph - N/A   Clear
6:30 AM 55.4 °F 48.2 °F 77% 30.15 in - Variable 1.2 mph - N/A   Clear
7:00 AM 55 °F 47 °F 65% 30.16 in 19 mi West 3.5 mph - -   Clear
7:00 AM 55.4 °F 46.4 °F 72% 30.15 in - West 3.5 mph - N/A   Clear
7:30 AM 53.6 °F 46.4 °F 77% 30.15 in - NW 2.3 mph - N/A   Clear
8:00 AM 53.6 °F 44.6 °F 72% 30.15 in - SW 1.2 mph - N/A   Clear
8:30 AM 53.6 °F 44.6 °F 72% 30.15 in - Calm Calm - N/A   Clear
9:00 AM 53.6 °F 44.6 °F 72% 30.15 in - Calm Calm - N/A   Clear
9:30 AM 53.6 °F 44.6 °F 72% 30.15 in - Calm Calm - N/A   Clear
10:00 AM 55 °F 44 °F 58% 30.17 in 31 mi SW 3.5 mph - -   Overcast
10:00 AM 55.4 °F 42.8 °F 63% 30.15 in - SW 2.3 mph - N/A   Clear
10:30 AM 57.2 °F 46.4 °F 67% 30.18 in - Variable 1.2 mph - N/A   Clear
11:00 AM 60.8 °F 46.4 °F 59% 30.18 in - Calm Calm - N/A   Clear
11:30 AM 62.6 °F 41.0 °F 45% 30.18 in - Calm Calm - N/A   Clear
12:00 PM 64.4 °F 42.8 °F 45% 30.18 in - Variable 1.2 mph - N/A   Clear
12:30 PM 68.0 °F 33.8 °F 28% 30.15 in - WNW 3.5 mph - N/A   Clear
1:00 PM 66 °F 41 °F 29% 30.15 in 25 mi East 4.6 mph - -   Mostly Cloudy
1:00 PM 66.2 °F 37.4 °F 35% 30.15 in - East 4.6 mph - N/A   Clear
1:30 PM 64.4 °F 33.8 °F 32% 30.15 in - NE 2.3 mph - N/A   Clear
2:00 PM 64.4 °F 33.8 °F 32% 30.15 in - Variable 1.2 mph - N/A   Clear
2:30 PM 66.2 °F 32.0 °F 28% 30.15 in - NE 1.2 mph - N/A   Clear
3:00 PM 66.2 °F 32.0 °F 28% 30.15 in - Variable 1.2 mph - N/A   Clear
3:30 PM 64.4 °F 32.0 °F 30% 30.15 in - Variable 2.3 mph - N/A   Clear
4:00 PM 65 °F 39 °F 26% 30.16 in 31 mi SSE 2.3 mph - -   Mostly Cloudy
4:00 PM 66.2 °F 32.0 °F 28% 30.15 in - SSE 2.3 mph - N/A   Clear
4:30 PM 66.2 °F 33.8 °F 30% 30.15 in - Calm Calm - N/A   Clear
5:00 PM 64.4 °F 33.8 °F 32% 30.15 in - Variable 1.2 mph - N/A   Clear
5:30 PM 62.6 °F 39.2 °F 42% 30.15 in - Calm Calm - N/A   Clear
6:00 PM 62.6 °F 35.6 °F 37% 30.15 in - WNW 3.5 mph - N/A   Clear
6:30 PM 62.6 °F 37.4 °F 39% 30.18 in - Variable 2.3 mph - N/A   Clear
7:00 PM 62 °F 38 °F 30% 30.18 in 25 mi West 3.5 mph - -   Mostly Cloudy
7:00 PM 62.6 °F 33.8 °F 34% 30.18 in - West 3.5 mph - N/A   Clear
7:30 PM 62.6 °F 37.4 °F 39% 30.18 in - West 3.5 mph - N/A   Clear
10:00 PM 60 °F 42 °F 39% 30.20 in 19 mi Calm Calm - -   Mostly Cloudy